Wind_Speed
16 16 15 15 15 14 13 13 13 13 12 11 12 13 15 17 17 17 17 16 15 15 14 12 12 13 14 14 14 13 13 13 12 12 11 12 12 12 13 15 15 14 12 10 9 8 8 10 12 9 7 6 6 7 7 7 7 7 7 8 8 8
16 16 16 16 15 14 13 13 14 12 11 11 12 13 15 17 17 17 16 15 14 13 12 11 11 12 13 13 13 13 12 12 12 11 12 12 12 13 14 15 15 14 11 10 8 8 8 9 11 10 8 7 7 8 8 8 9 8 8 8 8 9
16 16 16 16 15 14 14 14 13 12 11 11 12 13 15 17 17 16 15 15 14 13 12 11 11 11 12 12 13 13 12 12 12 12 12 13 14 14 15 15 15 13 11 10 8 8 8 9 10 10 9 9 8 8 9 9 9 9 8 8 8 9
15 15 15 15 15 14 14 14 13 12 11 11 12 13 15 16 16 16 15 14 13 13 13 11 10 10 11 11 12 12 12 12 12 13 13 14 14 15 15 15 14 13 12 12 10 8 8 9 10 10 9 10 10 9 9 9 10 9 9 9 9 9
15 15 15 15 15 15 14 13 12 12 11 11 11 13 15 16 15 15 13 12 12 12 12 10 9 9 10 10 10 11 12 13 12 13 13 14 15 15 15 14 13 13 13 14 13 9 7 9 10 11 10 11 11 10 9 10 10 10 10 10 10 10
15 16 15 15 15 15 14 13 12 11 11 11 11 13 15 15 14 13 11 10 11 11 10 10 9 9 8 9 9 10 12 13 13 12 13 14 15 15 14 13 12 12 13 14 15 12 8 8 10 10 10 11 12 11 10 10 10 10 10 10 10 11
15 16 15 15 15 15 14 13 12 11 10 10 11 13 14 14 13 12 9 9 9 9 9 10 9 8 7 8 9 10 12 12 13 13 13 13 14 14 13 13 12 12 13 14 14 14 11 7 7 9 10 12 13 13 12 11 11 10 10 11 11 11
15 16 16 15 15 14 13 12 11 10 10 10 11 12 13 12 12 10 8 7 7 8 9 9 9 8 8 8 10 11 11 12 12 12 12 12 13 13 12 12 13 13 14 14 14 15 14 10 6 8 11 13 14 14 14 12 11 10 10 11 10 11
15 16 16 15 14 14 13 11 10 10 10 10 11 12 12 11 10 9 7 7 6 7 8 9 9 9 9 10 11 12 12 13 12 12 12 12 12 12 12 11 12 13 14 15 15 16 16 13 9 8 12 14 15 15 15 13 11 10 9 9 9 10
15 15 15 15 14 13 12 11 10 10 9 10 11 11 11 10 9 8 7 7 7 8 9 9 10 10 10 10 11 12 13 14 13 13 12 12 12 12 12 12 11 12 13 14 15 17 17 15 12 10 13 16 17 17 16 14 11 9 8 8 8 9
15 15 15 14 14 13 11 10 10 10 9 10 11 11 10 10 9 8 8 8 8 9 9 10 11 11 11 11 11 12 13 14 15 14 14 14 13 13 13 13 12 12 13 14 15 16 17 16 15 13 13 17 18 18 17 15 11 9 8 8 7 8
15 15 15 14 13 12 11 11 10 10 10 10 11 11 11 11 10 9 9 9 9 10 11 12 12 12 12 12 12 12 13 15 16 17 16 16 15 15 14 14 14 13 13 13 14 15 16 17 17 15 14 17 19 19 19 16 14 13 11 10 9 8
15 15 15 14 13 12 11 11 11 11 10 10 11 11 12 12 11 11 11 10 10 10 12 12 13 12 12 12 13 14 15 17 18 19 20 20 18 17 17 16 17 16 14 13 13 14 15 17 18 16 15 17 19 20 19 18 17 16 14 13 11 9
15 15 15 14 13 12 12 12 11 11 10 11 12 12 13 13 12 12 12 12 12 12 13 13 14 13 13 13 13 15 17 18 19 20 22 22 19 19 19 20 20 19 17 15 14 15 15 16 17 16 15 17 19 21 20 20 20 18 17 17 15 13
15 15 15 14 13 13 13 12 11 11 11 12 13 13 14 14 13 13 14 14 15 15 15 15 15 14 14 14 15 16 17 19 21 21 23 23 21 20 20 21 23 23 21 18 16 16 15 15 16 15 16 17 19 21 21 23 23 22 21 19 17 16
15 16 15 15 14 13 13 12 11 11 12 13 14 14 15 15 15 15 16 16 17 17 17 17 17 16 16 16 16 17 18 20 21 22 22 23 23 21 20 22 23 23 24 22 20 18 17 16 16 17 17 17 19 21 23 23 24 24 22 19 17 18
16 16 15 14 14 14 13 13 12 12 13 13 14 15 17 17 17 17 17 17 18 18 19 19 18 18 17 17 18 19 20 21 21 21 21 22 23 23 21 21 22 22 23 24 23 22 20 18 17 18 19 19 19 21 23 24 24 23 23 21 18 18
15 15 15 15 14 14 14 13 12 12 13 14 15 16 18 18 18 18 19 19 19 19 19 19 19 19 19 19 19 19 20 21 22 23 23 23 24 25 24 22 21 21 22 23 24 24 24 23 21 20 20 21 20 21 24 26 25 23 24 23 20 18
16 16 15 15 14 14 14 14 13 13 14 15 16 17 19 19 20 20 20 19 19 20 19 19 19 19 20 20 19 20 21 23 23 23 24 25 24 25 26 25 24 22 22 21 21 23 24 25 25 22 21 21 22 22 25 28 28 24 24 25 22 20
16 16 16 15 14 14 15 15 15 15 15 16 17 18 20 20 21 21 21 20 20 20 20 19 19 20 20 20 21 21 22 21 21 22 24 25 24 23 24 26 26 25 23 21 20 21 23 25 26 24 22 23 23 24 26 28 29 27 25 26 24 22
16 16 16 15 15 15 16 16 16 16 17 17 18 19 20 21 22 22 21 21 20 20 19 19 19 20 20 21 20 20 20 21 21 23 25 25 25 24 23 23 25 26 25 23 22 22 23 25 26 25 24 24 24 25 26 27 29 30 28 27 25 24
16 16 16 16 16 16 17 17 17 17 18 18 19 20 21 22 22 22 22 21 20 20 20 20 21 22 21 20 19 21 23 24 23 24 25 25 26 26 25 23 23 24 25 24 23 22 23 25 27 26 25 26 25 25 27 27 29 31 31 30 27 25
16 16 17 17 17 17 18 18 18 18 19 20 20 20 21 22 23 22 22 21 20 20 21 22 23 22 22 21 22 25 26 25 25 25 25 25 25 26 27 26 24 24 25 24 24 23 23 24 26 26 26 28 27 26 28 28 28 30 33 32 29 27
16 17 17 18 18 18 19 19 19 19 20 20 21 21 21 22 23 23 22 21 21 21 21 22 23 22 23 23 24 26 27 28 28 27 26 25 25 26 27 27 27 26 26 25 24 24 24 24 25 26 27 29 28 27 28 28 29 31 32 32 30 29
17 17 18 19 19 19 20 20 20 20 21 21 21 21 22 23 23 23 23 22 21 21 21 22 23 23 24 24 26 27 29 30 29 28 27 26 26 27 27 28 28 27 26 26 25 23 24 25 25 27 28 28 28 28 26 27 30 32 31 30 30 29
18 18 19 20 20 20 20 21 21 22 22 22 22 22 23 23 24 24 24 23 22 21 22 22 23 24 24 26 27 29 30 30 29 28 27 26 27 29 29 29 28 28 27 28 27 24 24 26 26 27 27 26 27 27 25 28 31 32 31 30 30 30
19 19 19 20 20 21 21 22 22 22 23 23 23 23 23 24 24 25 24 23 23 22 22 23 24 24 25 27 29 30 31 31 30 29 28 27 27 28 30 30 29 29 28 28 29 26 25 26 26 26 26 25 26 26 25 27 28 30 32 32 31 31
20 19 20 20 21 22 22 23 23 23 23 23 23 24 24 24 24 25 25 24 23 23 23 23 24 25 26 27 29 30 31 32 31 31 31 31 30 30 31 31 30 29 29 29 29 28 26 26 25 25 25 25 27 27 26 26 27 29 31 32 32 31
20 20 20 21 22 23 23 23 23 23 24 24 23 24 24 24 24 25 25 24 24 23 24 24 25 25 26 27 29 30 31 31 32 33 34 35 35 35 34 34 32 31 30 29 28 28 28 27 26 25 25 25 27 28 27 27 29 30 29 30 31 30
21 20 21 22 23 23 23 23 23 23 24 24 24 24 24 24 24 25 25 25 24 23 24 25 26 26 27 28 29 30 31 31 32 33 35 37 38 38 38 36 34 32 31 29 29 28 28 28 26 25 26 26 27 28 27 28 29 30 29 29 31 32
21 21 22 23 23 24 24 24 24 24 25 25 25 25 25 24 24 25 25 25 24 23 24 25 26 27 28 29 30 31 31 31 32 33 34 36 38 39 39 38 35 33 31 30 29 29 28 28 26 25 26 27 27 28 29 30 30 30 31 31 32 33
22 23 23 23 24 25 25 25 25 25 26 27 27 26 26 25 25 25 25 25 24 24 24 24 26 27 28 30 31 32 32 31 31 32 33 35 37 38 38 37 35 33 31 30 29 28 28 27 26 26 26 28 29 29 30 32 33 32 32 32 33 33
24 24 24 25 25 25 25 26 26 26 27 27 27 27 26 26 26 26 25 26 25 25 24 24 26 27 29 30 32 32 32 32 32 32 34 36 37 37 36 35 34 33 31 29 28 27 27 27 27 26 27 30 30 28 28 31 32 33 34 33 32 32
26 26 26 26 26 26 26 26 27 27 27 28 27 27 27 27 27 26 26 26 26 25 25 25 26 27 29 30 31 32 32 31 32 33 34 36 37 36 34 33 33 32 30 28 27 27 27 28 27 26 27 30 29 25 25 28 30 32 35 34 33 32
27 27 26 27 27 27 27 28 28 28 29 29 28 27 27 27 27 27 27 26 26 26 25 26 27 28 29 30 31 31 31 31 32 33 34 36 35 34 32 32 32 30 28 26 25 25 26 27 27 26 26 27 29 27 26 28 27 30 34 35 34 33
27 27 27 28 29 29 29 29 29 29 30 29 28 27 27 27 28 27 27 26 26 26 25 25 26 27 28 29 30 30 30 31 32 32 34 35 34 32 31 30 28 26 25 24 23 23 23 25 26 25 24 25 28 28 27 28 28 29 33 36 36 34
27 28 29 29 29 30 30 30 30 30 30 29 29 28 28 28 28 27 27 26 26 26 25 25 26 26 27 28 29 30 30 30 32 32 33 34 32 30 28 27 24 23 22 21 20 21 21 22 23 23 23 23 25 26 28 30 29 30 32 34 35 34
Wind_Direction
262 261 261 260 258 257 257 260 265 272 283 294 306 318 325 328 328 327 327 327 330 334 337 336 331 331 334 337 336 329 325 326 328 325 323 323 322 321 321 325 330 327 318 311 308 308 300 286 278 271 265 261 251 247 240 233 233 231 232 234 236 239
261 260 259 257 255 253 254 259 264 271 283 294 308 321 326 327 326 326 326 326 329 332 334 334 332 332 336 339 340 337 333 332 331 328 325 324 322 320 319 321 327 326 315 310 310 303 290 278 273 269 263 259 250 247 243 235 234 233 232 236 239 243
260 259 256 254 252 250 253 258 263 271 282 296 311 322 326 325 325 326 326 325 325 325 327 329 329 333 338 340 343 343 342 339 335 331 327 326 323 320 319 320 324 325 313 306 310 301 282 269 265 263 258 257 250 245 246 242 238 237 236 236 239 245
258 256 253 251 249 249 253 257 262 270 282 298 313 323 324 324 325 326 326 324 320 317 321 323 327 335 338 340 342 343 345 344 340 336 331 328 326 323 321 320 321 323 314 304 305 302 279 263 257 255 254 255 250 241 241 243 241 240 237 236 239 247
257 254 251 249 248 249 252 255 260 270 284 300 314 321 322 323 324 324 324 321 315 315 318 320 327 337 336 335 338 340 344 345 343 339 335 332 330 327 324 320 319 321 318 306 299 299 281 258 253 251 247 251 253 243 235 238 241 243 241 240 243 249
256 252 249 247 247 249 252 255 261 272 287 300 312 318 320 322 322 320 320 317 313 315 316 318 329 339 337 331 331 334 341 343 341 338 334 332 330 329 326 320 317 319 320 310 296 292 285 259 252 253 247 247 252 246 235 233 236 240 242 245 249 254
254 251 247 245 246 248 251 255 262 274 286 298 310 315 319 321 318 316 315 312 311 311 311 315 325 337 336 330 328 331 337 339 338 335 331 328 326 327 326 321 315 315 318 314 298 289 288 276 254 252 247 243 246 246 239 232 232 237 241 246 252 259
252 247 245 243 244 247 250 256 264 275 284 297 309 314 317 317 312 310 307 303 302 298 300 307 316 325 328 327 327 329 332 333 333 332 328 323 319 319 321 320 315 311 310 311 303 289 288 290 267 245 241 240 243 244 243 237 233 238 244 252 261 271
248 243 242 242 243 246 249 256 264 273 284 297 307 310 312 310 305 301 295 288 282 282 288 297 305 313 321 324 325 326 327 327 326 326 323 318 313 310 312 316 317 314 308 304 299 289 287 287 273 243 232 236 241 242 243 240 234 234 242 256 270 282
246 242 240 241 243 245 249 255 262 272 283 295 302 304 304 300 295 288 281 277 274 278 285 293 301 308 316 320 321 323 324 323 322 320 316 312 308 305 305 308 312 315 310 302 295 289 286 281 268 245 227 227 235 242 243 242 239 238 242 255 270 283
243 240 240 241 243 244 247 254 262 271 280 290 294 294 293 289 281 273 271 273 277 283 289 295 300 306 311 314 315 318 319 319 319 316 313 309 304 302 300 301 305 309 308 303 294 285 282 278 265 248 231 223 229 238 242 244 241 241 251 263 273 283
241 239 239 240 241 243 247 254 261 267 276 284 284 283 282 280 275 270 270 273 280 288 293 296 298 302 304 306 309 312 314 316 317 316 314 310 305 303 300 297 300 304 305 304 297 283 275 276 265 248 233 225 227 233 240 244 240 244 255 264 272 280
240 239 238 238 239 242 247 253 259 264 272 277 276 276 277 276 274 272 274 277 282 289 292 294 293 294 295 299 305 310 315 318 319 320 318 314 308 305 306 304 303 304 305 305 299 283 270 272 266 249 234 227 227 230 236 240 240 250 254 255 262 264
240 239 237 237 239 242 247 251 256 262 269 272 273 275 275 275 273 273 276 280 284 288 290 291 289 288 290 294 302 311 317 321 325 325 323 320 310 302 305 308 309 306 305 304 296 285 273 270 267 253 236 229 228 230 232 232 238 252 250 248 251 251
239 237 236 238 240 243 246 250 255 262 268 270 272 275 275 274 273 272 275 279 284 287 289 290 289 288 289 294 303 312 320 325 329 329 326 323 315 307 309 309 308 305 304 302 295 288 278 270 266 254 241 232 230 232 232 230 238 249 246 244 246 252
240 238 239 241 243 244 247 251 257 264 269 272 274 274 273 272 272 271 273 277 282 287 291 293 293 292 294 300 309 318 325 329 330 327 325 321 314 312 312 308 306 304 302 300 296 292 284 272 263 253 247 239 233 235 238 237 240 243 240 241 247 258
243 242 243 244 244 247 250 254 260 265 271 275 275 274 271 271 271 271 273 276 281 287 293 296 296 297 300 307 316 324 328 328 325 322 319 315 311 310 309 305 304 302 299 296 294 292 287 280 268 256 250 245 239 238 241 243 243 241 239 240 243 258
246 244 244 245 245 248 252 256 261 266 272 276 275 274 272 272 272 272 274 277 282 287 292 295 296 300 306 312 319 324 324 321 317 315 313 311 309 307 305 303 301 297 294 292 291 289 287 284 276 265 257 250 244 241 241 242 244 243 240 235 238 255
244 243 244 245 246 248 254 258 262 266 271 275 276 276 275 273 273 273 274 277 281 286 292 294 298 304 309 313 318 320 318 317 318 319 319 317 315 311 306 302 298 295 291 287 286 285 284 282 277 270 262 256 247 245 244 241 242 242 236 232 241 256
244 245 247 247 248 250 255 260 262 266 271 275 278 279 277 274 273 273 273 276 280 285 290 295 300 304 306 311 315 317 319 322 325 327 326 324 322 321 315 306 299 296 294 289 284 282 280 279 278 271 263 259 251 247 249 243 239 237 233 234 247 258
247 248 249 248 248 251 256 260 263 267 272 277 280 280 277 274 273 273 273 275 279 284 289 294 297 300 305 313 317 319 322 323 324 324 322 319 318 319 318 312 303 297 295 292 286 280 278 276 277 275 268 263 254 247 248 244 238 234 233 238 249 255
248 248 248 248 250 254 258 261 265 270 275 279 281 281 278 275 273 274 275 276 280 285 289 292 295 301 308 316 319 318 318 318 319 318 317 315 312 311 311 309 304 299 295 292 286 278 274 272 273 276 274 268 259 248 244 241 239 237 237 240 245 248
248 248 249 251 255 258 261 264 268 272 277 280 283 284 281 279 277 276 277 278 282 286 290 294 299 305 309 313 316 316 316 317 317 316 314 312 309 308 308 305 301 298 296 293 288 280 273 270 270 271 272 269 261 252 244 239 238 240 240 240 240 242
247 249 252 255 259 262 264 268 272 275 278 281 285 287 285 282 280 279 279 280 283 287 292 296 301 307 309 311 314 315 316 317 316 314 313 311 308 306 305 303 298 295 293 292 289 282 273 268 267 266 268 268 261 254 248 241 238 239 240 241 240 240
248 251 255 259 262 265 269 272 275 276 278 282 287 289 287 284 282 282 281 281 283 286 291 297 302 307 310 313 315 316 316 316 315 315 312 310 307 305 303 300 296 292 288 287 286 281 272 265 262 260 263 266 259 253 248 239 238 241 242 242 240 239
250 253 257 261 265 268 271 273 274 276 280 285 289 291 289 286 285 284 282 282 283 286 291 297 302 307 311 315 316 316 317 317 316 314 311 307 305 304 304 301 296 291 284 281 281 278 271 264 259 257 259 262 258 252 243 236 238 242 244 243 240 239
251 253 257 262 266 269 271 273 276 279 283 287 289 291 290 288 287 286 285 284 285 288 293 299 304 308 313 316 317 318 319 319 317 314 310 306 304 303 303 301 297 292 285 280 277 276 272 266 260 258 258 257 253 248 241 238 240 241 244 244 238 235
251 253 258 262 265 268 272 275 279 282 284 288 291 293 292 291 289 287 286 285 287 290 295 301 306 310 315 317 318 319 320 319 318 315 312 309 308 306 304 301 297 292 286 281 277 273 271 267 261 257 258 255 250 246 242 239 240 242 244 241 234 231
251 254 258 262 265 268 272 276 279 282 286 290 293 294 294 292 289 287 286 286 288 291 296 301 306 311 315 317 317 318 319 319 317 315 313 311 310 309 307 303 298 293 287 282 276 271 268 267 261 256 257 256 250 248 243 237 239 243 243 238 230 228
251 255 260 264 267 270 273 276 279 283 286 289 292 293 293 291 289 286 285 285 287 291 296 302 307 311 314 316 316 317 318 318 317 314 312 311 310 309 307 303 299 295 290 282 275 269 264 264 261 255 256 256 250 246 241 236 239 244 243 238 231 228
252 257 262 266 270 272 274 276 279 282 284 287 290 292 293 292 290 288 286 285 286 291 297 302 307 311 313 315 315 316 317 318 316 313 311 310 310 309 306 302 298 294 290 281 274 269 263 259 257 252 254 256 253 248 242 235 235 239 240 238 233 229
255 260 265 269 271 272 274 276 279 281 284 287 290 294 296 296 294 293 291 290 290 293 298 303 307 310 312 314 316 317 318 318 316 313 312 311 310 308 305 301 297 293 288 280 272 269 264 258 254 251 253 255 254 251 245 235 230 232 236 235 231 228
260 265 269 271 272 272 275 278 280 282 285 288 292 295 298 299 298 297 295 293 293 294 298 303 307 309 312 315 317 319 320 319 317 316 315 313 310 307 303 299 295 290 286 279 269 266 262 255 253 252 252 254 255 255 247 236 228 228 232 232 229 227
262 267 271 271 272 274 275 277 279 281 283 286 291 296 299 300 299 298 296 295 294 296 300 304 307 309 313 317 319 320 320 320 319 319 317 314 311 307 302 298 294 288 283 275 266 264 260 255 254 254 254 255 257 258 245 233 229 228 230 228 226 226
264 268 270 271 272 273 274 276 278 279 281 285 291 296 299 300 300 299 298 297 297 299 303 306 308 311 314 318 319 320 321 321 321 321 318 315 312 308 303 300 296 288 280 270 262 261 260 258 257 256 257 257 260 259 242 228 229 231 228 225 223 224
264 267 268 269 270 271 273 275 277 278 280 286 293 298 301 302 301 300 299 299 299 301 304 307 310 312 315 318 320 321 322 322 323 323 320 318 315 310 306 304 298 289 280 270 263 260 257 256 255 255 258 260 264 262 240 223 225 227 224 221 221 222
263 265 265 266 268 270 272 273 275 277 281 287 293 298 302 302 301 300 298 298 299 301 305 308 310 313 316 319 321 323 323 322 323 324 323 321 317 313 309 306 299 289 281 272 264 259 255 253 253 255 259 262 266 258 232 219 222 222 219 219 221 223
Height
5849 5849 5849 5849 5849 5850 5850 5850 5850 5850 5850 5849 5849 5848 5847 5846 5844 5843 5842 5841 5840 5839 5838 5836 5836 5835 5834 5833 5832 5832 5831 5830 5829 5828 5827 5827 5826 5826 5826 5826 5826 5826 5826 5826 5825 5825 5825 5824 5823 5823 5823 5823 5823 5824 5824 5823 5823 5823 5822 5822 5822 5822
5848 5848 5848 5848 5848 5849 5849 5849 5849 5849 5849 5849 5848 5847 5846 5845 5843 5842 5841 5840 5839 5838 5837 5836 5835 5834 5833 5833 5832 5831 5830 5829 5828 5827 5826 5826 5825 5825 5824 5824 5824 5824 5825 5825 5824 5824 5824 5823 5822 5821 5822 5822 5822 5823 5823 5822 5822 5822 5822 5821 5821 5821
5847 5847 5847 5847 5847 5848 5848 5848 5848 5848 5848 5848 5847 5847 5845 5844 5843 5842 5840 5839 5838 5837 5836 5836 5835 5834 5833 5832 5831 5831 5830 5829 5828 5827 5825 5825 5824 5823 5823 5822 5822 5823 5823 5823 5823 5823 5823 5822 5821 5820 5820 5821 5821 5821 5822 5822 5821 5821 5821 5821 5820 5820
5845 5846 5846 5846 5846 5847 5847 5847 5847 5847 5847 5847 5847 5846 5845 5843 5842 5841 5839 5838 5837 5836 5836 5835 5835 5834 5833 5832 5831 5830 5829 5828 5827 5826 5825 5824 5823 5822 5822 5821 5821 5821 5821 5822 5821 5821 5822 5821 5820 5819 5819 5819 5820 5821 5821 5821 5821 5821 5820 5820 5819 5818
5844 5844 5845 5845 5845 5846 5846 5846 5846 5847 5847 5846 5846 5845 5844 5842 5841 5840 5839 5838 5836 5835 5835 5834 5834 5833 5832 5831 5830 5829 5828 5827 5826 5825 5824 5823 5822 5821 5820 5820 5819 5820 5820 5820 5820 5820 5820 5820 5819 5818 5818 5818 5819 5820 5820 5820 5820 5820 5820 5819 5818 5817
5843 5843 5843 5844 5844 5845 5845 5845 5846 5846 5846 5845 5845 5844 5843 5842 5840 5839 5838 5837 5836 5835 5834 5833 5833 5832 5831 5830 5829 5828 5827 5826 5825 5824 5823 5822 5821 5820 5819 5819 5818 5818 5818 5818 5818 5818 5819 5818 5818 5817 5817 5817 5818 5818 5818 5818 5818 5818 5818 5818 5817 5816
5842 5842 5842 5843 5843 5843 5844 5844 5845 5845 5845 5844 5844 5843 5842 5841 5839 5838 5837 5836 5835 5834 5833 5832 5831 5830 5829 5828 5827 5827 5826 5825 5823 5823 5822 5820 5819 5819 5818 5818 5817 5817 5817 5817 5817 5817 5817 5817 5817 5817 5817 5816 5816 5817 5817 5817 5817 5817 5817 5817 5816 5816
5840 5840 5841 5841 5842 5842 5843 5843 5844 5844 5844 5843 5842 5841 5841 5840 5838 5837 5837 5836 5834 5833 5832 5830 5829 5828 5828 5827 5826 5825 5824 5823 5822 5821 5820 5819 5818 5817 5817 5816 5816 5816 5816 5816 5815 5815 5815 5816 5816 5816 5816 5815 5815 5815 5816 5815 5815 5815 5816 5815 5815 5815
5839 5839 5840 5840 5841 5841 5841 5842 5842 5842 5842 5842 5841 5840 5840 5839 5838 5837 5836 5835 5833 5832 5830 5829 5828 5827 5826 5826 5825 5824 5823 5822 5821 5820 5818 5817 5816 5815 5815 5815 5814 5814 5814 5814 5814 5813 5814 5815 5815 5815 5815 5814 5814 5814 5814 5814 5814 5814 5814 5814 5814 5814
5837 5838 5838 5839 5840 5840 5840 5841 5841 5841 5841 5841 5840 5839 5838 5838 5837 5836 5835 5833 5832 5830 5829 5828 5827 5826 5825 5824 5823 5822 5821 5820 5819 5818 5817 5816 5815 5814 5813 5813 5813 5812 5812 5812 5812 5811 5812 5813 5813 5813 5813 5813 5812 5812 5813 5813 5813 5813 5813 5812 5812 5812
5836 5837 5837 5838 5838 5839 5839 5839 5839 5840 5840 5839 5838 5838 5837 5836 5836 5835 5834 5832 5831 5829 5828 5827 5826 5825 5824 5823 5822 5821 5820 5819 5818 5817 5816 5815 5813 5812 5812 5811 5811 5811 5810 5810 5810 5809 5809 5810 5810 5811 5811 5811 5811 5811 5811 5812 5813 5812 5812 5811 5810 5810
5835 5835 5836 5836 5837 5837 5838 5838 5838 5838 5838 5838 5837 5836 5835 5835 5834 5833 5832 5831 5830 5828 5827 5826 5825 5824 5822 5821 5820 5819 5819 5818 5817 5816 5815 5814 5813 5812 5811 5810 5810 5809 5809 5808 5808 5807 5807 5808 5808 5808 5809 5809 5809 5809 5810 5811 5811 5811 5810 5810 5809 5808
5833 5834 5834 5835 5836 5836 5836 5836 5837 5837 5836 5836 5835 5834 5833 5833 5833 5832 5831 5830 5828 5827 5826 5825 5824 5823 5821 5820 5819 5818 5818 5818 5817 5817 5815 5814 5813 5812 5811 5811 5810 5809 5808 5807 5806 5805 5805 5805 5805 5806 5807 5807 5808 5807 5808 5809 5809 5809 5809 5809 5808 5807
5831 5832 5833 5833 5834 5834 5835 5835 5835 5835 5834 5833 5832 5832 5832 5831 5831 5830 5829 5828 5827 5826 5825 5824 5823 5822 5821 5820 5819 5818 5818 5818 5818 5817 5815 5814 5813 5813 5812 5812 5810 5809 5808 5807 5805 5804 5804 5804 5803 5804 5805 5805 5806 5805 5805 5806 5807 5807 5807 5807 5807 5807
5829 5830 5831 5832 5832 5833 5833 5833 5833 5833 5832 5831 5830 5830 5830 5830 5829 5829 5828 5826 5825 5824 5824 5823 5822 5821 5820 5820 5819 5819 5819 5818 5818 5817 5815 5813 5811 5811 5812 5811 5809 5808 5807 5806 5805 5803 5802 5802 5802 5802 5803 5804 5804 5803 5803 5804 5805 5805 5805 5806 5806 5806
5828 5828 5829 5830 5831 5831 5831 5831 5831 5831 5830 5829 5829 5828 5828 5828 5827 5826 5826 5825 5824 5823 5823 5822 5821 5821 5820 5820 5820 5819 5819 5818 5817 5815 5814 5812 5810 5808 5808 5808 5807 5806 5805 5805 5804 5802 5801 5801 5800 5800 5801 5802 5802 5802 5801 5801 5802 5803 5803 5804 5805 5805
5826 5827 5827 5828 5829 5829 5830 5830 5830 5829 5828 5828 5827 5827 5826 5826 5825 5824 5824 5823 5823 5822 5821 5821 5820 5820 5820 5819 5819 5818 5817 5816 5815 5813 5812 5810 5808 5806 5805 5804 5804 5803 5803 5802 5802 5801 5800 5800 5799 5798 5799 5800 5800 5800 5799 5799 5800 5801 5802 5803 5803 5803
5824 5825 5826 5827 5827 5828 5828 5828 5828 5827 5827 5826 5825 5825 5824 5823 5823 5822 5822 5822 5821 5821 5820 5819 5819 5819 5819 5818 5817 5816 5815 5813 5812 5811 5809 5808 5806 5804 5802 5801 5801 5800 5800 5800 5799 5799 5798 5798 5797 5797 5796 5797 5798 5799 5798 5797 5798 5799 5800 5801 5801 5801
5823 5824 5824 5825 5825 5826 5826 5826 5826 5826 5825 5824 5823 5823 5822 5821 5821 5820 5820 5820 5820 5819 5818 5818 5817 5817 5816 5815 5814 5814 5812 5811 5809 5808 5807 5806 5804 5802 5800 5799 5798 5797 5797 5797 5797 5796 5796 5795 5795 5794 5794 5794 5795 5796 5796 5796 5796 5797 5798 5798 5799 5799
5821 5822 5823 5823 5824 5824 5824 5824 5824 5824 5824 5823 5822 5821 5820 5819 5819 5819 5819 5819 5819 5818 5817 5816 5815 5814 5813 5813 5812 5811 5810 5809 5807 5806 5804 5803 5801 5800 5799 5797 5796 5795 5794 5794 5794 5793 5793 5792 5792 5792 5792 5791 5792 5793 5793 5793 5793 5794 5795 5796 5797 5797
5819 5820 5821 5822 5822 5823 5823 5823 5822 5822 5822 5821 5820 5819 5818 5817 5817 5817 5817 5817 5817 5816 5815 5814 5812 5811 5811 5811 5811 5810 5808 5807 5805 5804 5802 5801 5799 5798 5797 5796 5794 5792 5792 5791 5791 5790 5790 5789 5789 5789 5789 5789 5789 5789 5790 5790 5791 5791 5792 5793 5794 5795
5818 5818 5819 5820 5820 5821 5821 5821 5821 5820 5820 5819 5818 5817 5816 5816 5815 5815 5816 5816 5815 5814 5812 5811 5809 5809 5809 5809 5808 5807 5806 5805 5804 5802 5801 5799 5797 5795 5795 5793 5792 5790 5789 5789 5788 5787 5787 5786 5786 5786 5786 5786 5786 5787 5787 5787 5788 5789 5790 5790 5792 5793
5816 5817 5817 5818 5819 5819 5819 5819 5819 5819 5818 5817 5816 5815 5814 5814 5814 5814 5814 5814 5813 5811 5810 5808 5807 5807 5807 5806 5806 5804 5804 5803 5802 5800 5799 5797 5795 5793 5792 5791 5789 5788 5787 5786 5785 5784 5784 5783 5783 5783 5783 5782 5783 5783 5784 5784 5785 5786 5786 5787 5789 5790
5814 5815 5815 5816 5817 5817 5817 5817 5817 5817 5816 5815 5814 5813 5812 5811 5811 5812 5812 5811 5810 5809 5807 5806 5805 5805 5804 5804 5803 5802 5801 5800 5799 5798 5796 5795 5793 5791 5789 5787 5786 5785 5784 5783 5782 5781 5780 5780 5779 5779 5779 5779 5779 5780 5780 5782 5782 5781 5782 5784 5786 5787
5813 5813 5814 5814 5815 5815 5815 5815 5815 5815 5814 5813 5812 5811 5810 5809 5809 5809 5809 5809 5809 5807 5806 5804 5803 5803 5802 5801 5800 5799 5798 5797 5796 5795 5793 5791 5789 5787 5786 5784 5782 5781 5780 5779 5779 5778 5777 5776 5775 5775 5775 5776 5776 5776 5777 5779 5778 5778 5779 5781 5783 5784
5811 5812 5812 5812 5813 5813 5813 5812 5812 5812 5812 5811 5810 5809 5808 5807 5807 5807 5807 5807 5806 5805 5804 5803 5802 5801 5800 5799 5797 5796 5795 5794 5793 5791 5790 5788 5786 5784 5782 5780 5779 5778 5777 5775 5774 5774 5774 5772 5771 5771 5772 5773 5772 5773 5774 5775 5775 5776 5777 5779 5780 5782
5809 5810 5810 5810 5810 5810 5810 5810 5810 5810 5809 5809 5808 5807 5806 5805 5804 5804 5804 5804 5804 5803 5802 5801 5800 5799 5798 5796 5794 5792 5791 5790 5789 5787 5786 5785 5783 5781 5779 5777 5775 5774 5773 5771 5770 5770 5770 5769 5768 5768 5768 5769 5769 5770 5771 5772 5773 5773 5774 5775 5777 5778
5807 5807 5808 5808 5808 5808 5808 5808 5808 5807 5807 5806 5805 5805 5804 5803 5802 5801 5801 5801 5801 5800 5799 5798 5797 5796 5795 5793 5791 5790 5788 5786 5785 5783 5781 5780 5778 5776 5775 5773 5771 5769 5768 5767 5766 5766 5765 5765 5764 5764 5765 5766 5766 5766 5768 5769 5770 5770 5771 5772 5774 5776
5805 5805 5806 5806 5806 5806 5806 5806 5805 5805 5805 5804 5803 5802 5801 5800 5800 5799 5799 5798 5798 5797 5796 5795 5794 5793 5792 5791 5789 5787 5786 5784 5782 5779 5776 5774 5772 5771 5770 5768 5766 5765 5763 5763 5762 5762 5762 5761 5761 5761 5761 5762 5763 5763 5764 5766 5767 5768 5768 5769 5771 5773
5802 5803 5803 5804 5804 5804 5804 5804 5803 5803 5802 5802 5801 5800 5799 5798 5797 5796 5796 5796 5796 5795 5794 5792 5791 5791 5790 5788 5787 5785 5784 5782 5779 5776 5773 5771 5768 5766 5764 5763 5761 5760 5759 5758 5758 5757 5758 5758 5758 5757 5757 5758 5759 5759 5761 5762 5764 5765 5766 5766 5768 5769
5800 5800 5801 5801 5802 5802 5801 5801 5801 5801 5800 5799 5799 5798 5797 5796 5795 5794 5793 5793 5793 5793 5792 5790 5789 5788 5786 5785 5784 5783 5781 5780 5777 5774 5771 5768 5765 5762 5760 5758 5756 5755 5754 5753 5753 5753 5754 5754 5754 5754 5753 5754 5755 5756 5757 5759 5760 5762 5762 5763 5764 5766
5798 5798 5798 5799 5799 5799 5799 5799 5799 5798 5798 5797 5796 5795 5794 5793 5792 5792 5791 5790 5790 5789 5789 5788 5787 5785 5784 5782 5781 5780 5778 5776 5774 5771 5768 5765 5762 5758 5755 5753 5751 5750 5749 5748 5748 5749 5750 5750 5750 5750 5749 5749 5750 5752 5753 5755 5756 5758 5759 5760 5761 5762
5795 5796 5796 5797 5797 5797 5796 5796 5796 5796 5795 5794 5793 5792 5792 5791 5790 5789 5788 5787 5787 5786 5786 5785 5784 5782 5781 5779 5778 5776 5774 5772 5770 5767 5764 5761 5758 5754 5751 5748 5747 5745 5744 5744 5744 5744 5745 5746 5746 5746 5746 5746 5746 5747 5748 5750 5752 5754 5756 5756 5757 5759
5793 5793 5794 5794 5794 5794 5794 5794 5794 5793 5793 5792 5791 5790 5789 5788 5787 5786 5786 5785 5784 5783 5783 5782 5781 5779 5778 5776 5775 5773 5771 5769 5766 5763 5760 5757 5753 5750 5747 5744 5742 5740 5739 5739 5739 5739 5740 5742 5742 5742 5743 5742 5743 5744 5744 5745 5748 5750 5752 5753 5755 5756
5791 5791 5791 5792 5792 5792 5792 5791 5791 5791 5790 5790 5789 5788 5787 5786 5785 5784 5783 5782 5781 5781 5780 5779 5778 5776 5775 5774 5772 5770 5768 5766 5763 5760 5757 5753 5749 5746 5743 5740 5737 5736 5735 5734 5735 5736 5736 5738 5739 5739 5740 5740 5740 5741 5741 5742 5745 5747 5748 5750 5752 5753
5789 5789 5789 5789 5789 5789 5789 5789 5789 5788 5788 5787 5786 5785 5784 5783 5782 5781 5781 5780 5779 5778 5777 5776 5775 5774 5772 5771 5770 5767 5765 5762 5760 5757 5753 5749 5745 5742 5739 5736 5733 5731 5731 5731 5732 5732 5733 5734 5736 5737 5738 5738 5737 5738 5738 5739 5741 5743 5745 5747 5749 5750
5787 5787 5787 5787 5787 5787 5787 5787 5786 5786 5785 5785 5784 5783 5782 5781 5780 5779 5778 5777 5777 5776 5775 5774 5773 5771 5770 5768 5766 5764 5762 5759 5756 5754 5750 5746 5742 5738 5735 5733 5730 5728 5728 5728 5729 5729 5730 5731 5733 5735 5736 5735 5735 5735 5735 5737 5739 5740 5742 5744 5746 5748